Starlink 2587

operational
NORAD ID: 48399 Int'l Des: 2021-038 Owner: SPXS Country: US Constellation: starlink
LEOCIRCULAR

关于 Starlink 2587

正在加载描述...

实时位置

正在加载3D地球...

即将过境

高度历史

Altitude vs Time

uPlot chart will show altitude changes over time

两行轨道根数

1 48399U 21038AY 26061.11809698 .00003355 00000-0 12536-3 0 9990
2 48399 53.1621 7.7687 0001235 94.0976 266.0166 15.30194657267490
Epoch: Mar 2, 2026 • Age: 28 hours

当前状态

高度 475.8 km
速度 7.63 km/s
星下点 3.06°N, 145.27°E
发射日期 May 4, 2021
运行时间 4.8 years
类型 internet

技术详情

分类 Payload
质量 260.00 kg
干质量 248.00 kg
总质量 260.00 kg
长度 0.20 m
直径 2.80 m
跨度 9.00 m
形状 Box + pan
制造商 SPXS
平台类型 Starlink
阶段状态 In Orbit
所有者/国家 SPXS/US

大型星座

Loading constellations...